Date String (YYYY-MM-DD hh:mm:ss) UTC,Instrument flags,Ambient pressure (hPa),Sample flow (lpm),Bypass flow (lpm),Sample temperature (°C),Ambient temperature (°C),ASC tube jacket temperature (°C),LED temperature (°C),Box temperature (°C),Sample RH (%),Span deviation,Mass concentration (μg/m³),Mass concentration (μg/m³),Mass concentration (μg/m³)
DateTimeUTC,F1_M11,P_M11,Q1_M11,Q2_M11,T1_M11,T2_M11,T3_M11,T4_M11,T5_M11,U1_M11,ZSPAN_M11,X0_M11,X2_M11,X1_M11
2021-11-27 16:00:00,,0830.7,4.99,0.00,24.5,23.9,00.0,33.5,26.3,09.9,0000.0,0008.49,0002.73,0001.92
2021-11-27 16:01:00,,0830.8,5.01,0.00,24.5,23.9,00.0,33.5,26.3,09.8,0000.0,0007.49,0002.67,0001.93
2021-11-27 16:02:00,,0830.7,5.00,0.00,24.5,23.9,00.0,33.5,26.3,09.8,0000.0,0006.97,0002.64,0001.91
2021-11-27 16:03:00,,0830.8,4.99,0.00,24.5,23.9,00.0,33.5,26.3,09.8,0000.0,0007.21,0002.66,0001.91
2021-11-27 16:04:00,,0830.8,5.01,0.00,24.5,23.9,00.0,33.5,26.3,09.7,0000.0,0007.53,0002.66,0001.91
2021-11-27 16:05:00,,0830.8,4.98,0.00,24.5,23.9,00.0,33.5,26.3,09.9,0000.0,0007.99,0002.68,0001.89
2021-11-27 16:06:00,,0830.8,5.01,0.00,24.5,23.9,00.0,33.5,26.3,09.9,0000.0,0008.45,0002.70,0001.88
2021-11-27 16:07:00,,0830.7,4.99,0.00,24.5,24.0,00.0,33.5,26.4,09.8,0000.0,0009.58,0002.74,0001.87
2021-11-27 16:08:00,,0830.7,5.01,0.00,24.6,24.0,00.0,33.5,26.4,09.8,0000.0,0009.82,0002.71,0001.83
2021-11-27 16:09:00,,0830.7,4.99,0.00,24.6,24.0,00.0,33.5,26.4,09.7,0000.0,0009.84,0002.68,0001.83
2021-11-27 16:10:00,,0830.7,5.01,0.00,24.6,24.0,00.0,33.5,26.4,09.7,0000.0,0009.69,0002.66,0001.80
2021-11-27 16:11:00,,0830.7,4.98,0.00,24.6,24.0,00.0,33.6,26.4,09.9,0000.0,0009.76,0002.67,0001.79
2021-11-27 16:12:00,,0830.7,5.01,0.00,24.6,24.0,00.0,33.6,26.4,09.8,0000.0,0009.97,0002.74,0001.79
2021-11-27 16:13:00,,0830.8,4.99,0.00,24.6,24.0,00.0,33.6,26.4,09.9,0000.0,0010.00,0002.75,0001.79
2021-11-27 16:14:00,,0830.8,5.02,0.00,24.6,24.0,00.0,33.6,26.4,09.9,0000.0,0010.05,0002.77,0001.80
2021-11-27 16:15:00,,0830.9,4.99,0.00,24.6,24.0,00.0,33.6,26.4,09.7,0000.0,0009.47,0002.79,0001.79
2021-11-27 16:16:00,,0830.9,5.01,0.00,24.6,24.0,00.0,33.6,26.4,09.7,0000.0,0008.68,0002.74,0001.78
2021-11-27 16:17:00,,0830.9,5.00,0.00,24.6,24.0,00.0,33.6,26.4,09.6,0000.0,0008.28,0002.65,0001.76
2021-11-27 16:18:00,,0831.0,5.00,0.00,24.6,24.0,00.0,33.6,26.4,09.7,0000.0,0006.83,0002.58,0001.73
2021-11-27 16:19:00,,0831.0,4.99,0.00,24.6,23.9,00.0,33.6,26.3,09.7,0000.0,0006.64,0002.55,0001.71
2021-11-27 16:20:00,,0831.0,5.01,0.00,24.6,23.9,00.0,33.6,26.3,09.6,0000.0,0007.23,0002.52,0001.68
2021-11-27 16:21:00,,0831.0,4.99,0.00,24.5,23.9,00.0,33.6,26.3,09.6,0000.0,0007.79,0002.41,0001.67
2021-11-27 16:22:00,,0831.1,5.00,0.00,24.5,23.9,00.0,33.6,26.3,09.7,0000.0,0008.18,0002.38,0001.67
2021-11-27 16:23:00,,0831.0,5.01,0.00,24.5,23.9,00.0,33.6,26.3,09.7,0000.0,0007.94,0002.31,0001.65
2021-11-27 16:24:00,,0831.2,4.99,0.00,24.5,23.9,00.0,33.6,26.3,09.7,0000.0,0008.39,0002.31,0001.62
2021-11-27 16:25:00,,0831.2,5.00,0.00,24.5,23.9,00.0,33.6,26.3,09.8,0000.0,0008.39,0002.28,0001.60
2021-11-27 16:26:00,,0831.2,5.00,0.00,24.5,23.9,00.0,33.6,26.3,09.8,0000.0,0008.24,0002.22,0001.59
2021-11-27 16:27:00,,0831.2,5.00,0.00,24.5,24.0,00.0,33.6,26.3,09.7,0000.0,0008.12,0002.17,0001.58
2021-11-27 16:28:00,,0831.2,5.01,0.00,24.5,24.0,00.0,33.6,26.3,09.7,0000.0,0008.35,0002.18,0001.57
2021-11-27 16:29:00,,0831.2,4.99,0.00,24.5,24.0,00.0,33.6,26.4,09.6,0000.0,0009.48,0002.16,0001.57
2021-11-27 16:30:00,,0831.2,5.01,0.00,24.5,24.0,00.0,33.6,26.3,09.5,0000.0,0009.66,0002.13,0001.56
2021-11-27 16:31:00,,0831.2,5.01,0.00,24.5,23.9,00.0,33.6,26.3,09.5,0000.0,0008.86,0002.09,0001.55
2021-11-27 16:32:00,,0831.2,5.00,0.00,24.5,23.8,00.0,33.6,26.3,09.5,0000.0,0008.77,0002.16,0001.55
2021-11-27 16:33:00,,0831.2,5.00,0.00,24.5,23.7,00.0,33.6,26.2,09.3,0000.0,0008.81,0002.14,0001.50
2021-11-27 16:34:00,,0831.2,4.98,0.00,24.4,23.7,00.0,33.5,26.2,09.4,0000.0,0008.83,0002.12,0001.46
2021-11-27 16:35:00,,0831.2,5.01,0.00,24.4,23.6,00.0,33.5,26.1,09.6,0000.0,0008.36,0002.09,0001.44
2021-11-27 16:36:00,,0831.2,4.99,0.00,24.4,23.6,00.0,33.5,26.1,09.7,0000.0,0008.21,0002.05,0001.40
2021-11-27 16:37:00,,0831.2,4.99,0.00,24.4,23.6,00.0,33.5,26.1,09.6,0000.0,0008.36,0002.07,0001.37
2021-11-27 16:38:00,,0831.2,5.01,0.00,24.4,23.6,00.0,33.5,26.1,09.7,0000.0,0008.42,0002.08,0001.36
2021-11-27 16:39:00,,0831.2,4.99,0.00,24.4,23.6,00.0,33.5,26.1,09.7,0000.0,0008.32,0002.07,0001.34
2021-11-27 16:40:00,,0831.2,5.01,0.00,24.3,23.5,00.0,33.5,26.1,09.7,0000.0,0007.13,0002.02,0001.32
2021-11-27 16:41:00,,0831.2,4.98,0.00,24.3,23.5,00.0,33.5,26.0,09.8,0000.0,0006.42,0002.07,0001.30
2021-11-27 16:42:00,,0831.2,5.01,0.00,24.3,23.4,00.0,33.4,26.0,09.8,0000.0,0006.46,0002.09,0001.30
2021-11-27 16:43:00,,0831.2,4.99,0.00,24.3,23.4,00.0,33.4,26.0,09.8,0000.0,0005.32,0002.05,0001.31
2021-11-27 16:44:00,,0831.2,4.99,0.00,24.3,23.4,00.0,33.4,25.9,09.9,0000.0,0004.18,0002.04,0001.31
2021-11-27 16:45:00,,0831.2,5.02,0.00,24.2,23.4,00.0,33.4,25.9,10.1,0000.0,0004.24,0002.03,0001.32
2021-11-27 16:46:00,,0831.2,4.98,0.00,24.2,23.5,00.0,33.4,25.9,10.1,0000.0,0004.24,0002.05,0001.31
2021-11-27 16:47:00,,0831.3,5.01,0.00,24.2,23.5,00.0,33.4,26.0,09.9,0000.0,0004.12,0002.04,0001.32
2021-11-27 16:48:00,,0831.2,4.99,0.00,24.2,23.5,00.0,33.4,26.0,10.0,0000.0,0003.86,0002.04,0001.32
2021-11-27 16:49:00,,0831.2,4.99,0.00,24.2,23.5,00.0,33.4,26.0,10.0,0000.0,0003.83,0002.01,0001.30
2021-11-27 16:50:00,,0831.2,5.01,0.00,24.2,23.5,00.0,33.3,26.0,10.1,0000.0,0003.80,0001.99,0001.30
2021-11-27 16:51:00,,0831.3,5.00,0.00,24.2,23.5,00.0,33.3,26.0,10.0,0000.0,0003.76,0001.99,0001.30
2021-11-27 16:52:00,,0831.3,5.00,0.00,24.2,23.6,00.0,33.3,26.0,10.0,0000.0,0004.20,0001.98,0001.29
2021-11-27 16:53:00,,0831.3,5.00,0.00,24.3,23.6,00.0,33.3,26.0,10.0,0000.0,0004.21,0001.95,0001.27
2021-11-27 16:54:00,,0831.3,5.00,0.00,24.3,23.7,00.0,33.3,26.0,10.0,0000.0,0004.24,0001.94,0001.25
2021-11-27 16:55:00,,0831.3,5.00,0.00,24.3,23.7,00.0,33.3,26.0,10.0,0000.0,0004.87,0001.97,0001.25
2021-11-27 16:56:00,,0831.3,5.00,0.00,24.3,23.6,00.0,33.3,26.1,09.9,0000.0,0005.76,0001.97,0001.25
2021-11-27 16:57:00,,0831.3,4.99,0.00,24.3,23.6,00.0,33.3,26.1,09.9,0000.0,0006.02,0001.92,0001.25
2021-11-27 16:58:00,,0831.3,5.01,0.00,24.3,23.6,00.0,33.3,26.0,09.9,0000.0,0006.04,0001.92,0001.25
2021-11-27 16:59:00,,0831.4,5.00,0.00,24.3,23.6,00.0,33.3,26.0,10.0,0000.0,0006.19,0001.93,0001.25
